Tracking 18840 objects as of 18-November-2017
HD Live streaming from Space Station
objects crossing your sky now

COSMOS 1555 (GLONASS)

Track COSMOS 1555 (GLONASS) now!
COSMOS 1555 (GLONASS) is classified as:


NORAD ID: 14978
Int'l Code: 1984-047B
Perigee: 19,103.2 km
Apogee: 19,171.1 km
Inclination: 65.9 °
Period: 675.7 minutes
Semi major axis: 25508 km
RCS: 0.5602 m2 (medium)
Launch date: May 19, 1984
Source: Commonwealth of Independent States (former USSR) (CIS)
Launch site: TYURATAM MISSILE AND SPACE COMPLEX (TTMTR)
SV:
aabbcc
Your satellite tracking list
Your tracking list is empty




NASA's NSSDC Master Catalog

Two Line Element Set (TLE):
1 14978U 84047B   17321.60344833 -.00000053 +00000-0 +00000-0 0  9996
2 14978 065.9397 071.0127 0013297 185.4192 065.4312 02.13100451232724
Source of the keplerian elements: AFSPC